Weather History for Centralia, IL

Change the Weather History Date:

Thursday, November 14, 2013

  Actual Average (KSLO) Record (KSLO)
Temperature  
Mean Temperature 44 °F -  
Max Temperature 57 °F 55 °F 77 °F (1964)
Min Temperature 32 °F 34 °F 10 °F (1986)
Degree Days  
Heating Degree Days 20    
Moisture  
Dew Point 25 °F    
Average Humidity 49    
Maximum Humidity 73    
Minimum Humidity 26    
Precipitation  
Precipitation 0.00 in - - ()
Sea Level Pressure  
Sea Level Pressure 30.20 in    
Wind  
Wind Speed 10 mph (South)    
Max Wind Speed 18 mph    
Max Gust Speed 25 mph    
Visibility 10 miles    
Events      
Averages and records for this station are not official NWS values.
T = Trace of Precipitation, MM = Missing Value Source: NWS Daily Summary

Daily Weather History Graph

Daily Weather History Graph

Search for Another Location

Airport:

Trip Planner

Search our weather history database for the weather conditions in past years. The results will help you decide how hot, cold, wet, or windy it might be!

Date:

Astronomy

Nov. 14, 2013 Rise Set
Actual Time 6:37 AM CST 4:43 PM CST
Civil Twilight 6:09 AM CST 5:12 PM CST
Nautical Twilight 5:37 AM CST 5:44 PM CST
Astronomical Twilight 5:05 AM CST 6:15 PM CST
Moon 3:03 PM CST (11/14) 3:34 AM CST (11/14)
Length of Visible Light 11h 03m
Length of Day
10h 06m
Waxing Gibbous, 92% of the Moon is Illuminated
Nov 14
Waxing Gibbous
Nov 17
Full
Nov 25
Last Quarter
Dec 2
New
Dec 9
First Quarter

Hourly Weather History & Observations

Time (CST) Temp. Windchill Dew Point Humidity Pressure Visibility Wind Dir Wind Speed Gust Speed Precip Events Conditions
12:15 AM 34.7 °F 27.5 °F 24.3 °F 66% 30.34 in 10.0 mi SSW 9.2 mph - N/A   Clear
12:35 AM 34.0 °F 27.2 °F 24.3 °F 68% 30.34 in 10.0 mi South 8.1 mph - N/A   Clear
12:55 AM 33.3 °F 27.1 °F 24.3 °F 70% 30.33 in 10.0 mi South 6.9 mph - N/A   Clear
1:15 AM 32.9 °F 26.7 °F 24.6 °F 72% 30.33 in 10.0 mi South 6.9 mph - N/A   Clear
1:35 AM 33.1 °F 26.9 °F 24.8 °F 72% 30.33 in 10.0 mi South 6.9 mph - N/A   Clear
1:55 AM 34.3 °F 27.0 °F 24.8 °F 68% 30.33 in 10.0 mi South 9.2 mph - N/A   Clear
2:15 AM 34.3 °F 25.9 °F 24.8 °F 68% 30.32 in 10.0 mi South 11.5 mph 16.1 mph N/A   Clear
2:35 AM 34.7 °F 26.4 °F 24.8 °F 67% 30.32 in 10.0 mi South 11.5 mph - N/A   Clear
2:55 AM 34.3 °F 26.5 °F 24.6 °F 68% 30.32 in 10.0 mi South 10.4 mph - N/A   Clear
3:15 AM 33.4 °F 26.6 °F 24.6 °F 70% 30.31 in 10.0 mi South 8.1 mph - N/A   Clear
3:35 AM 33.8 °F 25.8 °F 24.8 °F 70% 30.30 in 10.0 mi South 10.4 mph - N/A   Clear
3:55 AM 33.4 °F 26.6 °F 24.8 °F 71% 30.30 in 10.0 mi South 8.1 mph - N/A   Clear
4:15 AM 33.3 °F 27.9 °F 24.4 °F 70% 30.30 in 10.0 mi South 5.8 mph - N/A   Clear
4:35 AM 33.8 °F 28.6 °F 24.4 °F 69% 30.30 in 10.0 mi South 5.8 mph - N/A   Clear
4:55 AM 32.9 °F 28.5 °F 24.3 °F 71% 30.29 in 10.0 mi SSE 4.6 mph - N/A   Clear
5:15 AM 32.4 °F 26.9 °F 24.3 °F 72% 30.29 in 10.0 mi South 5.8 mph - N/A   Clear
5:35 AM 32.0 °F 28.7 °F 24.1 °F 73% 30.28 in 10.0 mi SSE 3.5 mph - N/A   Clear
5:55 AM 32.2 °F 27.7 °F 24.3 °F 73% 30.28 in 10.0 mi South 4.6 mph - N/A   Clear
6:15 AM 32.4 °F - 24.3 °F 72% 30.28 in 10.0 mi Calm Calm - N/A   Clear
6:35 AM 32.5 °F 29.3 °F 23.9 °F 70% 30.28 in 10.0 mi South 3.5 mph - N/A   Clear
6:55 AM 32.4 °F 27.9 °F 24.1 °F 72% 30.29 in 10.0 mi South 4.6 mph - N/A   Clear
7:15 AM 32.9 °F 29.8 °F 25.0 °F 73% 30.29 in 10.0 mi South 3.5 mph - N/A   Clear
7:35 AM 35.8 °F 30.1 °F 25.7 °F 67% 30.30 in 10.0 mi South 6.9 mph - N/A   Clear
7:55 AM 37.4 °F 30.8 °F 25.9 °F 63% 30.30 in 10.0 mi SSW 9.2 mph - N/A   Clear
8:15 AM 39.0 °F 32.3 °F 26.4 °F 61% 30.29 in 10.0 mi SSW 10.4 mph - N/A   Clear
8:35 AM 41.2 °F 34.1 °F 25.7 °F 54% 30.29 in 10.0 mi SSW 12.7 mph 19.6 mph N/A   Clear
8:55 AM 42.6 °F 35.2 °F 25.5 °F 51% 30.29 in 10.0 mi SSW 15.0 mph 21.9 mph N/A   Clear
9:15 AM 43.9 °F 36.8 °F 25.2 °F 48% 30.29 in 10.0 mi SSW 15.0 mph 18.4 mph N/A   Clear
9:35 AM 45.5 °F 38.9 °F 25.2 °F 45% 30.29 in 10.0 mi SSW 15.0 mph 19.6 mph N/A   Clear
9:55 AM 47.3 °F - 24.6 °F 41% 30.28 in 10.0 mi SSW 15.0 mph 19.6 mph N/A   Clear
10:15 AM 48.7 °F - 23.7 °F 38% 30.27 in 10.0 mi South 18.4 mph 21.9 mph N/A   Clear
10:35 AM 49.8 °F - 24.1 °F 37% 30.27 in 10.0 mi South 15.0 mph 23.0 mph N/A   Clear
10:55 AM 52.0 °F - 24.6 °F 35% 30.25 in 10.0 mi SSW 13.8 mph 18.4 mph N/A   Clear
11:15 AM 52.7 °F - 23.9 °F 33% 30.24 in 10.0 mi South 18.4 mph - N/A   Clear
11:35 AM 53.6 °F - 22.5 °F 30% 30.22 in 10.0 mi South 18.4 mph 24.2 mph N/A   Clear
11:55 AM 54.3 °F - 22.8 °F 29% 30.21 in 10.0 mi South 16.1 mph - N/A   Clear
12:15 PM 55.4 °F - 22.6 °F 28% 30.19 in 10.0 mi SSW 16.1 mph 20.7 mph N/A   Clear
12:35 PM 55.8 °F - 22.8 °F 28% 30.17 in 10.0 mi South 18.4 mph - N/A   Clear
12:55 PM 56.7 °F - 21.7 °F 26% 30.16 in 10.0 mi South 15.0 mph 20.7 mph N/A   Clear
1:15 PM 57.0 °F - 21.7 °F 26% 30.15 in 10.0 mi SSW 15.0 mph 25.3 mph N/A   Clear
1:35 PM 56.1 °F - 23.9 °F 29% 30.14 in 10.0 mi South 12.7 mph - N/A   Clear
1:55 PM 57.0 °F - 23.4 °F 27% 30.13 in 10.0 mi South 16.1 mph - N/A   Clear
2:15 PM 56.3 °F - 22.6 °F 27% 30.13 in 10.0 mi South 17.3 mph 25.3 mph N/A   Clear
2:35 PM 55.8 °F - 23.0 °F 28% 30.12 in 10.0 mi South 16.1 mph 19.6 mph N/A   Clear
2:55 PM 57.0 °F - 23.2 °F 27% 30.12 in 10.0 mi South 13.8 mph - N/A   Clear
3:15 PM 56.8 °F - 23.5 °F 28% 30.12 in 10.0 mi South 15.0 mph 19.6 mph N/A   Clear
3:35 PM 55.2 °F - 24.6 °F 31% 30.12 in 10.0 mi South 15.0 mph 21.9 mph N/A   Clear
3:55 PM 53.4 °F - 23.5 °F 31% 30.12 in 10.0 mi South 16.1 mph 21.9 mph N/A   Clear
4:15 PM 52.2 °F - 24.6 °F 34% 30.11 in 10.0 mi South 12.7 mph 21.9 mph N/A   Clear
4:35 PM 51.1 °F - 24.8 °F 36% 30.11 in 10.0 mi South 11.5 mph - N/A   Clear
4:55 PM 50.9 °F - 24.8 °F 36% 30.11 in 10.0 mi South 12.7 mph 19.6 mph N/A   Clear
5:15 PM 50.2 °F - 24.8 °F 37% 30.12 in 10.0 mi South 12.7 mph - N/A   Clear
5:35 PM 50.0 °F - 25.2 °F 38% 30.12 in 10.0 mi South 15.0 mph - N/A   Clear
5:55 PM 49.5 °F - 25.0 °F 38% 30.12 in 10.0 mi South 13.8 mph - N/A   Clear
6:15 PM 49.3 °F - 25.3 °F 39% 30.12 in 10.0 mi South 15.0 mph - N/A   Clear
6:35 PM 49.3 °F - 25.5 °F 40% 30.12 in 10.0 mi South 13.8 mph - N/A   Clear
6:55 PM 48.2 °F - 26.4 °F 43% 30.11 in 10.0 mi South 13.8 mph - N/A   Clear
7:15 PM 48.4 °F - 26.2 °F 42% 30.11 in 10.0 mi SSE 15.0 mph 23.0 mph N/A   Clear
7:35 PM 48.2 °F - 26.4 °F 43% 30.10 in 10.0 mi South 13.8 mph - N/A   Clear
7:55 PM 48.2 °F - 26.4 °F 43% 30.10 in 10.0 mi South 12.7 mph 18.4 mph N/A   Clear
8:15 PM 48.4 °F - 25.7 °F 41% 30.10 in 10.0 mi South 16.1 mph 20.7 mph N/A   Clear
8:35 PM 48.7 °F - 25.3 °F 40% 30.10 in 10.0 mi South 16.1 mph 19.6 mph N/A   Clear
8:55 PM 48.6 °F - 25.7 °F 41% 30.10 in 10.0 mi South 11.5 mph 17.3 mph N/A   Clear
9:15 PM 48.6 °F - 25.5 °F 41% 30.10 in 10.0 mi South 12.7 mph 18.4 mph N/A   Clear
9:35 PM 48.2 °F - 25.7 °F 42% 30.10 in 10.0 mi South 16.1 mph - N/A   Clear
9:55 PM 47.7 °F - 25.9 °F 43% 30.10 in 10.0 mi South 12.7 mph - N/A   Clear
10:15 PM 47.3 °F - 26.1 °F 44% 30.10 in 10.0 mi South 11.5 mph - N/A   Clear
10:35 PM 47.3 °F - 26.4 °F 44% 30.10 in 10.0 mi SSW 10.4 mph 16.1 mph N/A   Clear
10:55 PM 46.9 °F - 26.4 °F 45% 30.10 in 10.0 mi South 11.5 mph - N/A   Clear
11:15 PM 46.8 °F - 27.0 °F 46% 30.10 in 10.0 mi South 10.4 mph - N/A   Clear
11:35 PM 46.6 °F - 27.5 °F 47% 30.10 in 10.0 mi South 10.4 mph - N/A   Clear
11:55 PM 46.4 °F 41.5 °F 27.5 °F 48% 30.10 in 10.0 mi South 10.4 mph - N/A   Clear